Résultats de la compétition "1/2 finale SE" du 20-04-2008 organisée par la ligue AZ
     
  Télécharger le fichier CSV.  
     
     

 Circuit "Bbis"

Licence Nom Prénom Temps CN
précédent
Score sur
la course
Différence
8422VUITTONChristophe1:05:3759065727-179
5676BALLIOTYvan1:08:5760585450-608
1593DELENNEPierre1:09:1658475425-422
9179ALESSANDRIPierre1:10:3348415327+486
7982MANGIONEFrançois1:12:0154535218-235
2936SANDEVOIRBenoit1:15:5258554953-902
8837HULSERaymond1:17:4455024834-668
3203DESBRESTPatrick1:18:5042384767+529
3818BASSETOlivier1:21:0457204636-1084
7877VANDEWEEGHEVincent1:21:1342654627+362
11419RINGOTFrederic1:24:2043274456+129
5603MANETP-Jean1:24:3242954446+151
10517ROGERJ-Pierre1:26:3241244343+219
12503PETETINJ-Louis1:27:1832724305+1033
3546GIBIATFrederic1:28:3744234241-182
9460MONTEMONTPatrice1:30:1145274167-360
11174AZOCARArnaud1:31:1736144117+503
3956LILLAZPascal1:35:4744243923-501
16632KASTENSSONJens1:38:5042183802-416
1320ROCHPierre1:42:0537703681-89
803BARRIERXavier1:45:0938673574-293
761POMETEric1:47:0645103509-1001
10798SIONNEAUMarc1:48:5036553453-202
16492CARRIEREOlivier1:52:0337453354-391
465LOPEZAlain1:56:3138773225-652
12230FERRATOEric1:56:5036073217-390
16933SINICOPatrick2:07:3128582947+89
17711MOTHEPierre2:08:3032812924-357
10367SIAUDPhilippe2:18:2632362715-521
8733COULIERFrancois2:30:2428702499-371
799POCCHIOLABernard2:53:03N/A2172N/A
1752GRANSARTRenaudN/A36920-3692
2321DENAIXMichelN/A56850-5685

  Indice de confiance du circuit (moyenne des différences entre CN et score sur la course des 3 à 10 premiers) : 197






 Retour